Regional Weather Roundup
Issued by NWS Upton, NY

Current Version | Previous Version | Text Only | Print | Product List | Glossary On
Versions: 1 2 3 4 5 6 7 8 9 10 11 12 13 14 15 16 17 18 19 20 21 22 23 24 25 26 27 28 29 30 31 32 33 34 35 36 37 38 39 40 41 42 43 44 45 46 47 48 49 50
000
ASUS41 KOKX 021504
RWROKX

REGIONAL WEATHER ROUNDUP
NATIONAL WEATHER SERVICE NEW YORK NY
1100 AM EDT WED SEP 02 2015

NOTE: "FAIR" INDICATES FEW OR NO CLOUDS BELOW 12,000 FEET WITH NO
SIGNIFICANT WEATHER AND/OR OBSTRUCTIONS TO VISIBILITY.

NYZ071-072-176-178-NJZ106-104-021600-
NEW YORK CITY METRO AREA


CITY           SKY/WX    TMP DP  RH WIND       PRES   REMARKS
CENTRAL PARK   SUNNY     85  66  53 VRB5      30.05S
LAGUARDIA APRT PTSUNNY   84  65  52 SW8       30.01F
KENNEDY INTL   PTSUNNY   81  70  69 S8        30.04S
NEWARK/LIBERTY PTSUNNY   84  70  62 CALM      30.01F
BRNX BOT. GARD   N/A     82  64  54 NW3       30.04R
TETERBORO      SUNNY     83  67  58 VRB5      30.00F
$$

NYZ177-179-078>081-021600-
LONG ISLAND NEW YORK

CITY           SKY/WX    TMP DP  RH WIND       PRES   REMARKS
FARMINGDALE    SUNNY     84  65  52 SW12      30.03S
ISLIP          MOSUNNY   83  64  52 SW9       30.01F
SHIRLEY        SUNNY     81  70  69 S9        30.03F
WESTHAMPTON    SUNNY     83  66  56 SW8       30.04F
MONTAUK POINT    N/A     79  71  76 VRB6      30.03F
$$

NYZ052-065-067-021600-
HUDSON VALLEY

CITY           SKY/WX    TMP DP  RH WIND       PRES   REMARKS
WHITE PLAINS   SUNNY     83  64  52 W6        30.02F
NEWBURGH       NOT AVBL
MONTGOMERY     SUNNY     82  69  64 S3        30.02F
POUGHKEEPSIE   SUNNY     81  64  56 CALM      30.01F
ALBANY         MOSUNNY   78  66  66 NW3       30.02S
$$

NJZ001-105-106-008-010-013-015-019>022-104-021600-
NEW JERSEY

CITY           SKY/WX    TMP DP  RH WIND       PRES   REMARKS
NEWARK/LIBERTY PTSUNNY   84  70  62 CALM      30.01F
TETERBORO      SUNNY     83  67  58 VRB5      30.00F
CALDWELL       SUNNY     82  67  60 CALM      30.02F
MORRISTOWN     CLOUDY    86  70  58 S3        30.02F HX  90
SOMERVILLE     MOSUNNY   84  68  58 VRB3      30.00F
SUSSEX         SUNNY     80  67  64 VRB3      30.03F
ANDOVER          N/A     79  68  69 CALM      30.04F
TRENTON        MOSUNNY   81  70  69 SW5       30.02F HAZE
MILLVILLE      CLOUDY    82  71  69 CALM      30.03S
ATLANTIC CITY  PTSUNNY   83  71  67 SE6       30.03F
WRIGHTSTOWN    CLOUDY    75  75 100 VRB2      30.01F
TOMS RIVER     PTSUNNY   82  70  65 SE8       30.03F
BELMAR         MOSUNNY   82  68  61 CALM      30.03F
$$

PAZ047>061-062-071-021600-
EASTERN PENNSYLVANIA

CITY           SKY/WX    TMP DP  RH WIND       PRES   REMARKS
PHILADELPHIA   PTSUNNY   83  70  64 VRB3      30.02F HAZE
ALLENTOWN      MOSUNNY   81  67  62 SW5       30.03F
SCRANTON       SUNNY     77  66  68 CALM      30.06F
$$

CTZ002-004>006-009-010-012-RIZ004-006-007-MAZ004-011-015-021600-
SOUTHERN NEW ENGLAND
 IN CT

CITY           SKY/WX    TMP DP  RH WIND       PRES   REMARKS
BRADLEY INTL   SUNNY     80  66  62 S5        29.99F
HARTFORD       SUNNY     82  66  58 S6        29.99F
DANBURY        SUNNY     80  65  59 SW5       30.04F
WTRBRY/OXFORD  MOSUNNY   79  64  61 NW5       30.06S
BRIDGEPORT     MOSUNNY   80  69  69 SW10      30.02S
MERIDEN        SUNNY     84  64  50 CALM      30.00F
NEW HAVEN      SUNNY     78  70  76 S12       30.02F
CHESTER        NOT AVBL
GROTON         SUNNY     78  72  81 SW9       30.01F
WILLIMANTIC    SUNNY     80  67  64 CALM      30.01F

 IN RI

CITY           SKY/WX    TMP DP  RH WIND       PRES   REMARKS
PROVIDENCE     SUNNY     82  66  58 SW8       30.00F
BLOCK ISLAND   SUNNY     77  72  83 SW13      30.03F
WESTERLY       MOSUNNY   76  69  79 W7        30.02F

 IN MA

CITY           SKY/WX    TMP DP  RH WIND       PRES   REMARKS
BOSTON         SUNNY     85  64  49 W9        29.97F
WORCESTER      SUNNY     77  64  64 W12       30.03S
WESTFIELD      SUNNY     80  65  59 VRB5      30.00F
PROVINCETOWN     N/A     77  64  65 SW15      29.99F
NANTUCKET        N/A    N/A N/A N/A MISG      30.03S
$$

ANZ330-335-338-340-345-350-353-355-021600-
COASTAL MARINE OBSERVATIONS


STATION/POSITION TIME  SKY/WX   TEMP    WIND        PRES    VSBY  WAVE
                                AIR SEA DIR/SP/G                  HT/PER
                 (UTC)          (F)     (DEG/KT/KT) (MB)    (MI)  (FT/S)
NY HARB ENTRANCE 1350            76 77  200/  4/  6 1016.7          1/ 7
4S FIRE IS       NOT AVBL
20S FIRE ISLAND  1350            75 75  190/  4/  4 1016.9          2/ 7
GREAT SOUTH BAY  1400            75 79  230/  6/  6   N/A
23SW MTP         1450            73 73  230/  6/  6 1016.5          1/ 7
HUDSON CANYON    NOT AVBL
KINGS POINT      1400            79 78  230/  4/  6 1016.0
EXECUTION ROCKS  1400            87      CALM  /  2   N/A
CENTRAL LI SOUND NOT AVBL
EASTERN LI SOUND 1400            72 71  200/  6/  8   N/A
ROBBINS REEF     1400            73     160/  9/  9 1015.7
$$


>>>>>>>>>>>>>>>>>>>>>>>>>>>> KEY <<<<<<<<<<<<<<<<<<<<<<<<<<<
>                                                          <
>     SKY/WX - SKY CONDITION/PRESENT WEATHER               <
>     TMP    - TEMPERATURE IN FAHRENHEIT                   <
>     DP     - DEWPOINT IN FAHRENHEIT                      <
>     RH     - RELATIVE HUMIDITY IN PERCENT                <
>     WIND   - DIRECTION AND SPEED IN MPH                  <
>     PRES   - MEAN SEA LEVEL PRESSURE IN INCHES OF HG     <
>     WCI    - WIND CHILL INDEX                            <
>     VSB    - VISIBILITY IN MILES                         <
>     HX     - HEAT INDEX                                  <
>     TC     - TEMPERATURE IN CELSIUS                      <
>     VRB    - VARIABLE WIND DIRECTION                     <
>                                                          <
>>>>>>>>>>>>>>>>>>>>>>>>>>>> KEY <<<<<<<<<<<<<<<<<<<<<<<<<<<




USA.gov is the U.S. government's official web portal to all federal, state and local government web resources and services.